PUA2603 SACO-SUMU

Flight info

Callsign PUA2603
Flight time 1h 9m
Altitude 39000
Route GENAS1G GENAS UW6 PAR UL417 NIMBO
Aircraft A20N/M-SDE2E3FGHIRWXY/LB1

Departure

Time 2026-05-07 06:49
Airport Ingeniero Aeronáutico Ambrosio L.V. Taravella International Airport (SACO)

Arrival

Time 2026-05-07 07:59
Airport Carrasco General Cesáreo L. Berisso International Airport (SUMU)
Time Latitude Longitude Altitude Speed Heading
2026-05-07 06:22 -31.31618 -64.21167 1567 ft 0 kts 270°
2026-05-07 06:39 -31.31618 -64.21154 1566 ft 2 kts 270°
2026-05-07 06:40 -31.31618 -64.21137 1565 ft 2 kts 270°
2026-05-07 06:40 -31.31618 -64.21119 1565 ft 2 kts 269°
2026-05-07 06:40 -31.31622 -64.21103 1564 ft 2 kts 318°
2026-05-07 06:40 -31.31633 -64.21096 1564 ft 0 kts 354°
2026-05-07 06:41 -31.31640 -64.21096 1563 ft 1 kts
2026-05-07 06:41 -31.31642 -64.21096 1563 ft 0 kts 359°
2026-05-07 06:42 -31.31627 -64.21097 1564 ft 4 kts 359°
2026-05-07 06:43 -31.31584 -64.21089 1564 ft 8 kts 14°
2026-05-07 06:43 -31.31520 -64.21071 1566 ft 10 kts 20°
2026-05-07 06:43 -31.31467 -64.21009 1566 ft 13 kts 76°
2026-05-07 06:43 -31.31464 -64.20882 1562 ft 17 kts 79°
2026-05-07 06:44 -31.31356 -64.20835 1562 ft 18 kts 360°
2026-05-07 06:44 -31.31233 -64.20835 1564 ft 17 kts 360°
2026-05-07 06:44 -31.31117 -64.20836 1567 ft 15 kts 359°
2026-05-07 06:44 -31.31016 -64.20838 1571 ft 13 kts 359°
2026-05-07 06:45 -31.30918 -64.20840 1574 ft 15 kts 359°
2026-05-07 06:45 -31.30799 -64.20842 1576 ft 18 kts 359°
2026-05-07 06:45 -31.30661 -64.20843 1582 ft 20 kts 359°
2026-05-07 06:45 -31.30510 -64.20849 1585 ft 23 kts 358°
2026-05-07 06:46 -31.30333 -64.20850 1591 ft 26 kts 359°
2026-05-07 06:46 -31.30147 -64.20855 1595 ft 26 kts 359°
2026-05-07 06:46 -31.29976 -64.20858 1602 ft 22 kts 360°
2026-05-07 06:46 -31.29829 -64.20863 1605 ft 20 kts 358°
2026-05-07 06:47 -31.29697 -64.20873 1607 ft 18 kts 347°
2026-05-07 06:47 -31.29596 -64.20867 1611 ft 7 kts 82°
2026-05-07 06:47 -31.29613 -64.20856 1610 ft 0 kts 179°
2026-05-07 06:48 -31.29615 -64.20856 1610 ft 2 kts 179°
2026-05-07 06:49 -31.29844 -64.20855 1604 ft 73 kts 180°
2026-05-07 06:49 -31.30612 -64.20843 1583 ft 144 kts 179°
2026-05-07 06:49 -31.31780 -64.20815 1863 ft 176 kts 181°
2026-05-07 06:49 -31.32933 -64.20793 2839 ft 166 kts 175°
2026-05-07 06:50 -31.33905 -64.20255 3818 ft 168 kts 135°
2026-05-07 06:50 -31.34429 -64.18933 4437 ft 192 kts 115°
2026-05-07 06:50 -31.34873 -64.17367 4955 ft 214 kts 115°
2026-05-07 06:50 -31.35409 -64.15688 5624 ft 228 kts 117°
2026-05-07 06:51 -31.36027 -64.13972 6526 ft 232 kts 118°
2026-05-07 06:51 -31.36683 -64.12281 7390 ft 236 kts 118°
2026-05-07 06:51 -31.37388 -64.10527 8188 ft 243 kts 117°
2026-05-07 06:51 -31.38126 -64.08717 8939 ft 252 kts 117°
2026-05-07 06:52 -31.38892 -64.06848 9679 ft 260 kts 116°
2026-05-07 06:52 -31.39510 -64.04861 10380 ft 268 kts 101°
2026-05-07 06:52 -31.39704 -64.02655 10988 ft 279 kts 89°
2026-05-07 06:52 -31.39678 -64.00349 11450 ft 296 kts 86°
2026-05-07 06:53 -31.39609 -63.97862 11901 ft 314 kts 85°
2026-05-07 06:53 -31.39545 -63.95229 12370 ft 331 kts 85°
2026-05-07 06:53 -31.39494 -63.92531 13038 ft 340 kts 85°
2026-05-07 06:53 -31.39452 -63.89743 13795 ft 345 kts 85°
2026-05-07 06:54 -31.39415 -63.86906 14512 ft 352 kts 84°
2026-05-07 06:54 -31.39376 -63.84049 15194 ft 358 kts 83°
2026-05-07 06:54 -31.39335 -63.81117 15902 ft 363 kts 83°
2026-05-07 06:54 -31.39294 -63.78164 16608 ft 368 kts 82°
2026-05-07 06:55 -31.39253 -63.75190 17259 ft 374 kts 82°
2026-05-07 06:55 -31.39208 -63.72126 17894 ft 379 kts 81°
2026-05-07 06:55 -31.39157 -63.69014 18521 ft 385 kts 82°
2026-05-07 06:55 -31.39117 -63.65857 19125 ft 392 kts 83°
2026-05-07 06:56 -31.39244 -63.62657 19757 ft 401 kts 89°
2026-05-07 06:56 -31.39607 -63.59406 20380 ft 409 kts 94°
2026-05-07 06:56 -31.40107 -63.56136 21010 ft 414 kts 95°
2026-05-07 06:56 -31.40646 -63.52799 21603 ft 419 kts 96°
2026-05-07 06:57 -31.41187 -63.49443 22164 ft 425 kts 96°
2026-05-07 06:57 -31.41731 -63.46016 22749 ft 430 kts 95°
2026-05-07 06:57 -31.42273 -63.42564 23304 ft 435 kts 96°
2026-05-07 06:57 -31.42818 -63.39061 23868 ft 440 kts 96°
2026-05-07 06:58 -31.43357 -63.35563 24423 ft 445 kts 96°
2026-05-07 06:58 -31.43908 -63.31985 24967 ft 449 kts 95°
2026-05-07 06:58 -31.44467 -63.28351 25521 ft 452 kts 95°
2026-05-07 06:58 -31.45016 -63.24751 25969 ft 458 kts 95°
2026-05-07 06:59 -31.45585 -63.21031 26467 ft 462 kts 95°
2026-05-07 06:59 -31.46149 -63.17321 26907 ft 467 kts 96°
2026-05-07 06:59 -31.46713 -63.13599 27393 ft 470 kts 95°
2026-05-07 06:59 -31.47254 -63.09818 27867 ft 473 kts 95°
2026-05-07 07:00 -31.47781 -63.06039 28280 ft 476 kts 95°
2026-05-07 07:00 -31.48310 -63.02176 28697 ft 480 kts 95°
2026-05-07 07:00 -31.48840 -62.98307 29084 ft 484 kts 95°
2026-05-07 07:00 -31.49371 -62.94437 29426 ft 488 kts 95°
2026-05-07 07:01 -31.49915 -62.90499 29810 ft 491 kts 95°
2026-05-07 07:01 -31.50462 -62.86551 30185 ft 493 kts 95°
2026-05-07 07:01 -31.51011 -62.82559 30567 ft 495 kts 95°
2026-05-07 07:01 -31.51551 -62.78576 30897 ft 498 kts 95°
2026-05-07 07:02 -31.52099 -62.74594 31211 ft 501 kts 95°
2026-05-07 07:02 -31.52657 -62.70532 31592 ft 502 kts 94°
2026-05-07 07:02 -31.53202 -62.66493 31935 ft 504 kts 95°
2026-05-07 07:02 -31.53743 -62.62496 32214 ft 506 kts 94°
2026-05-07 07:03 -31.54303 -62.58382 32549 ft 507 kts 95°
2026-05-07 07:03 -31.54847 -62.54330 32961 ft 507 kts 94°
2026-05-07 07:03 -31.55398 -62.50261 33425 ft 504 kts 94°
2026-05-07 07:03 -31.55938 -62.46243 33858 ft 503 kts 94°
2026-05-07 07:04 -31.56481 -62.42179 34246 ft 501 kts 95°
2026-05-07 07:04 -31.57018 -62.38155 34526 ft 501 kts 94°
2026-05-07 07:04 -31.57555 -62.34128 34765 ft 503 kts 93°
2026-05-07 07:04 -31.58089 -62.30119 35030 ft 502 kts 94°
2026-05-07 07:05 -31.58621 -62.26083 35263 ft 503 kts 94°
2026-05-07 07:05 -31.59157 -62.22007 35488 ft 503 kts 94°
2026-05-07 07:05 -31.59696 -62.17943 35724 ft 503 kts 94°
2026-05-07 07:05 -31.60224 -62.13935 35976 ft 503 kts 94°
2026-05-07 07:06 -31.60756 -62.09872 36264 ft 503 kts 94°
2026-05-07 07:06 -31.61280 -62.05870 36487 ft 504 kts 93°
2026-05-07 07:06 -31.61807 -62.01812 36755 ft 504 kts 94°
2026-05-07 07:06 -31.62330 -61.97769 36938 ft 506 kts 94°
2026-05-07 07:07 -31.62863 -61.93683 37144 ft 507 kts 95°
2026-05-07 07:07 -31.63389 -61.89624 37346 ft 508 kts 94°
2026-05-07 07:07 -31.63920 -61.85527 37535 ft 509 kts 94°
2026-05-07 07:07 -31.64454 -61.81399 37743 ft 509 kts 95°
2026-05-07 07:08 -31.64980 -61.77307 37921 ft 510 kts 94°
2026-05-07 07:08 -31.65504 -61.73200 38103 ft 511 kts 95°
2026-05-07 07:08 -31.66034 -61.69070 38254 ft 513 kts 94°
2026-05-07 07:08 -31.66555 -61.64978 38394 ft 513 kts 95°
2026-05-07 07:09 -31.67085 -61.60792 38566 ft 515 kts 94°
2026-05-07 07:09 -31.67608 -61.56662 38643 ft 516 kts 94°
2026-05-07 07:09 -31.68663 -61.48357 38646 ft 517 kts 95°
2026-05-07 07:10 -31.69720 -61.40003 38678 ft 514 kts 95°
2026-05-07 07:10 -31.70753 -61.31756 38655 ft 515 kts 94°
2026-05-07 07:11 -31.71788 -61.23444 38647 ft 513 kts 93°
2026-05-07 07:11 -31.72805 -61.15201 38655 ft 513 kts 94°
2026-05-07 07:12 -31.73830 -61.06891 38657 ft 513 kts 94°
2026-05-07 07:12 -31.74838 -60.98640 38650 ft 512 kts 93°
2026-05-07 07:13 -31.75836 -60.90410 38651 ft 513 kts 94°
2026-05-07 07:13 -31.76838 -60.82149 38654 ft 512 kts 94°
2026-05-07 07:14 -31.77837 -60.73831 38659 ft 513 kts 94°
2026-05-07 07:14 -31.78820 -60.65590 38647 ft 513 kts 94°
2026-05-07 07:15 -31.79832 -60.57314 38654 ft 513 kts 97°
2026-05-07 07:15 -31.81766 -60.49224 38665 ft 516 kts 111°
2026-05-07 07:16 -31.85106 -60.41815 38660 ft 514 kts 126°
2026-05-07 07:16 -31.89443 -60.35146 38666 ft 512 kts 131°
2026-05-07 07:17 -31.93879 -60.28592 38656 ft 511 kts 130°
2026-05-07 07:17 -31.98239 -60.22015 38663 ft 511 kts 129°
2026-05-07 07:18 -32.02587 -60.15379 38661 ft 508 kts 129°
2026-05-07 07:18 -32.06885 -60.08799 38658 ft 507 kts 129°
2026-05-07 07:19 -32.11172 -60.02224 38660 ft 507 kts 129°
2026-05-07 07:19 -32.15460 -59.95639 38667 ft 507 kts 129°
2026-05-07 07:20 -32.19747 -59.89039 38676 ft 507 kts 129°
2026-05-07 07:20 -32.24041 -59.82424 38651 ft 507 kts 129°
2026-05-07 07:21 -32.28306 -59.75838 38659 ft 507 kts 128°
2026-05-07 07:21 -32.32592 -59.69203 38666 ft 506 kts 129°
2026-05-07 07:22 -32.36830 -59.62632 38646 ft 506 kts 129°
2026-05-07 07:22 -32.41101 -59.56002 38661 ft 506 kts 128°
2026-05-07 07:23 -32.45342 -59.49409 38661 ft 505 kts 128°
2026-05-07 07:23 -32.49573 -59.42808 38667 ft 504 kts 128°
2026-05-07 07:24 -32.53819 -59.36172 38667 ft 504 kts 128°
2026-05-07 07:24 -32.58002 -59.29621 38652 ft 502 kts 127°
2026-05-07 07:25 -32.64337 -59.19662 38652 ft 508 kts 127°
2026-05-07 07:26 -32.68603 -59.12935 38650 ft 515 kts 127°
2026-05-07 07:26 -32.72913 -59.06126 38660 ft 521 kts 127°
2026-05-07 07:27 -32.77278 -58.99217 38647 ft 525 kts 127°
2026-05-07 07:27 -32.81664 -58.92260 38649 ft 525 kts 127°
2026-05-07 07:28 -32.86041 -58.85299 38651 ft 526 kts 127°
2026-05-07 07:28 -32.90396 -58.78366 38663 ft 524 kts 126°
2026-05-07 07:29 -32.94744 -58.71429 38630 ft 523 kts 126°
2026-05-07 07:29 -32.99058 -58.64523 38643 ft 524 kts 126°
2026-05-07 07:30 -33.03604 -58.57795 38651 ft 523 kts 131°
2026-05-07 07:30 -33.08396 -58.51252 38651 ft 524 kts 131°
2026-05-07 07:31 -33.13160 -58.44749 38651 ft 525 kts 131°
2026-05-07 07:31 -33.17931 -58.38197 38648 ft 521 kts 131°
2026-05-07 07:32 -33.22681 -58.31650 38654 ft 521 kts 131°
2026-05-07 07:32 -33.27394 -58.25142 38650 ft 522 kts 131°
2026-05-07 07:33 -33.32147 -58.18560 38652 ft 521 kts 130°
2026-05-07 07:33 -33.36839 -58.12059 38631 ft 517 kts 130°
2026-05-07 07:33 -33.39186 -58.08797 38225 ft 518 kts 130°
2026-05-07 07:34 -33.41528 -58.05542 37790 ft 518 kts 130°
2026-05-07 07:34 -33.43899 -58.02238 37376 ft 517 kts 130°
2026-05-07 07:34 -33.46210 -57.99019 36737 ft 515 kts 130°
2026-05-07 07:34 -33.48544 -57.95768 35838 ft 517 kts 130°
2026-05-07 07:35 -33.50878 -57.92507 34903 ft 520 kts 131°
2026-05-07 07:35 -33.53249 -57.89196 34020 ft 522 kts 131°
2026-05-07 07:35 -33.55580 -57.85932 33264 ft 526 kts 131°
2026-05-07 07:35 -33.57970 -57.82585 32532 ft 528 kts 131°
2026-05-07 07:36 -33.60350 -57.79243 31894 ft 528 kts 131°
2026-05-07 07:36 -33.62738 -57.75887 31318 ft 530 kts 131°
2026-05-07 07:36 -33.65126 -57.72525 30784 ft 531 kts 131°
2026-05-07 07:36 -33.67523 -57.69156 30288 ft 532 kts 131°
2026-05-07 07:37 -33.69902 -57.65812 29807 ft 533 kts 131°
2026-05-07 07:37 -33.72332 -57.62390 29338 ft 535 kts 131°
2026-05-07 07:37 -33.74753 -57.58977 28751 ft 534 kts 132°
2026-05-07 07:37 -33.77147 -57.55590 28223 ft 535 kts 131°
2026-05-07 07:38 -33.79542 -57.52200 27660 ft 532 kts 131°
2026-05-07 07:38 -33.81900 -57.48857 27185 ft 522 kts 131°
2026-05-07 07:38 -33.84217 -57.45574 26751 ft 512 kts 131°
2026-05-07 07:38 -33.86514 -57.42316 26326 ft 502 kts 130°
2026-05-07 07:39 -33.88756 -57.39124 25816 ft 495 kts 130°
2026-05-07 07:39 -33.90944 -57.36023 25344 ft 488 kts 130°
2026-05-07 07:39 -33.93151 -57.32905 24869 ft 482 kts 130°
2026-05-07 07:39 -33.95286 -57.29877 24422 ft 475 kts 130°
2026-05-07 07:40 -33.97435 -57.26832 23947 ft 468 kts 130°
2026-05-07 07:40 -33.99508 -57.23885 23512 ft 462 kts 129°
2026-05-07 07:40 -34.01562 -57.20963 23049 ft 457 kts 129°
2026-05-07 07:40 -34.03599 -57.18063 22515 ft 454 kts 129°
2026-05-07 07:41 -34.05622 -57.15182 22016 ft 450 kts 129°
2026-05-07 07:41 -34.07641 -57.12300 21510 ft 447 kts 129°
2026-05-07 07:41 -34.09638 -57.09446 21034 ft 443 kts 129°
2026-05-07 07:41 -34.11602 -57.06639 20559 ft 439 kts 129°
2026-05-07 07:42 -34.13589 -57.03792 20047 ft 435 kts 129°
2026-05-07 07:42 -34.15525 -57.01017 19453 ft 435 kts 129°
2026-05-07 07:42 -34.17464 -56.98244 18935 ft 432 kts 129°
2026-05-07 07:42 -34.19388 -56.95491 18490 ft 427 kts 128°
2026-05-07 07:43 -34.21278 -56.92777 18032 ft 423 kts 128°
2026-05-07 07:43 -34.23161 -56.90070 17580 ft 419 kts 128°
2026-05-07 07:43 -34.25026 -56.87387 17147 ft 414 kts 129°
2026-05-07 07:43 -34.26868 -56.84739 16722 ft 410 kts 129°
2026-05-07 07:44 -34.28693 -56.82111 16323 ft 405 kts 129°
2026-05-07 07:44 -34.30506 -56.79502 15895 ft 401 kts 129°
2026-05-07 07:44 -34.32282 -56.76939 15502 ft 396 kts 129°
2026-05-07 07:44 -34.34049 -56.74385 15097 ft 393 kts 129°
2026-05-07 07:45 -34.35790 -56.71867 14702 ft 389 kts 128°
2026-05-07 07:45 -34.37526 -56.69350 14293 ft 386 kts 129°
2026-05-07 07:45 -34.39230 -56.66883 13865 ft 383 kts 129°
2026-05-07 07:45 -34.40930 -56.64422 13473 ft 379 kts 128°
2026-05-07 07:46 -34.42604 -56.61988 13070 ft 376 kts 129°
2026-05-07 07:46 -34.44273 -56.59565 12677 ft 372 kts 129°
2026-05-07 07:46 -34.45926 -56.57162 12275 ft 369 kts 129°
2026-05-07 07:46 -34.47385 -56.55040 11909 ft 367 kts 129°
2026-05-07 07:47 -34.49022 -56.52656 11479 ft 365 kts 129°
2026-05-07 07:47 -34.50615 -56.50271 11044 ft 362 kts 124°
2026-05-07 07:47 -34.51808 -56.47628 10645 ft 357 kts 110°
2026-05-07 07:47 -34.52574 -56.44793 10231 ft 353 kts 104°
2026-05-07 07:48 -34.53230 -56.41918 9819 ft 350 kts 103°
2026-05-07 07:48 -34.53849 -56.39134 9618 ft 339 kts 103°
2026-05-07 07:48 -34.54468 -56.36414 9371 ft 332 kts 103°
2026-05-07 07:48 -34.55086 -56.33728 8998 ft 329 kts 103°
2026-05-07 07:49 -34.55707 -56.31057 8636 ft 326 kts 103°
2026-05-07 07:49 -34.56324 -56.28428 8261 ft 324 kts 103°
2026-05-07 07:49 -34.56941 -56.25807 7894 ft 321 kts 103°
2026-05-07 07:49 -34.57556 -56.23202 7537 ft 319 kts 103°
2026-05-07 07:50 -34.58158 -56.20644 7186 ft 316 kts 104°
2026-05-07 07:50 -34.58756 -56.18097 6839 ft 314 kts 104°
2026-05-07 07:50 -34.59355 -56.15542 6501 ft 311 kts 104°
2026-05-07 07:50 -34.59944 -56.13046 6165 ft 309 kts 104°
2026-05-07 07:51 -34.60536 -56.10526 5825 ft 307 kts 104°
2026-05-07 07:51 -34.61118 -56.08042 5495 ft 305 kts 104°
2026-05-07 07:51 -34.61690 -56.05602 5160 ft 303 kts 104°
2026-05-07 07:51 -34.62264 -56.03156 4825 ft 301 kts 104°
2026-05-07 07:52 -34.62836 -56.00705 4495 ft 299 kts 104°
2026-05-07 07:52 -34.63396 -55.98306 4168 ft 297 kts 104°
2026-05-07 07:52 -34.63963 -55.95875 3842 ft 295 kts 104°
2026-05-07 07:52 -34.64542 -55.93482 3499 ft 294 kts 109°
2026-05-07 07:53 -34.65592 -55.91419 3190 ft 288 kts 139°
2026-05-07 07:53 -34.67134 -55.89940 3067 ft 275 kts 148°
2026-05-07 07:53 -34.68671 -55.88654 3005 ft 261 kts 149°
2026-05-07 07:53 -34.70136 -55.87421 2975 ft 248 kts 149°
2026-05-07 07:54 -34.71533 -55.86327 2946 ft 229 kts 166°
2026-05-07 07:54 -34.72995 -55.86122 2966 ft 202 kts 202°
2026-05-07 07:54 -34.74110 -55.86871 2906 ft 170 kts 236°
2026-05-07 07:54 -34.74804 -55.87984 2689 ft 159 kts 245°
2026-05-07 07:55 -34.75392 -55.89073 2481 ft 153 kts 246°
2026-05-07 07:55 -34.75987 -55.90129 2280 ft 148 kts 245°
2026-05-07 07:55 -34.76569 -55.91113 2106 ft 139 kts 244°
2026-05-07 07:55 -34.77135 -55.92051 1921 ft 133 kts 245°
2026-05-07 07:56 -34.77681 -55.92955 1748 ft 133 kts 244°
2026-05-07 07:56 -34.78235 -55.93868 1578 ft 133 kts 244°
2026-05-07 07:56 -34.78780 -55.94761 1408 ft 132 kts 243°
2026-05-07 07:56 -34.79333 -55.95671 1238 ft 132 kts 242°
2026-05-07 07:57 -34.79878 -55.96565 1058 ft 132 kts 240°
2026-05-07 07:57 -34.80418 -55.97454 877 ft 131 kts 239°
2026-05-07 07:57 -34.80965 -55.98355 704 ft 131 kts 238°
2026-05-07 07:57 -34.81504 -55.99243 528 ft 131 kts 237°
2026-05-07 07:58 -34.82049 -56.00138 359 ft 130 kts 236°
2026-05-07 07:58 -34.82579 -56.01020 183 ft 129 kts 235°
2026-05-07 07:58 -34.83103 -56.01885 83 ft 119 kts 234°
2026-05-07 07:58 -34.83493 -56.02523 77 ft 70 kts 234°
2026-05-07 07:59 -34.83690 -56.02827 70 ft 27 kts 204°
2026-05-07 07:59 -34.83844 -56.02852 65 ft 20 kts 178°
2026-05-07 07:59 -34.83967 -56.02775 62 ft 19 kts 116°
2026-05-07 07:59 -34.83949 -56.02626 63 ft 18 kts 83°
2026-05-07 08:00 -34.83946 -56.02467 64 ft 19 kts 90°
2026-05-07 08:00 -34.83947 -56.02304 64 ft 19 kts 88°
2026-05-07 08:00 -34.83853 -56.02238 67 ft 16 kts
2026-05-07 08:00 -34.83758 -56.02202 71 ft 13 kts 45°
2026-05-07 08:01 -34.83703 -56.02110 73 ft 13 kts 55°
2026-05-07 08:01 -34.83652 -56.02021 75 ft 12 kts 54°
2026-05-07 08:01 -34.83611 -56.01927 76 ft 12 kts 95°
2026-05-07 08:01 -34.83648 -56.01862 75 ft 5 kts 143°
2026-05-07 08:02 -34.83654 -56.01857 75 ft 0 kts 144°